2018-091B

Last updated on Nov. 19, 2018, 12:02 a.m. UTC

1 43703U 18091B   18322.46909684  .02151265  12221-4  31463-3 0  9992
2 43703  51.6284 329.7115 0020357  93.4949 267.0490 16.33033142   282

Satellite is not in orbit.